Union Aéronautique de la Côte d'Azur

Union Aéronautique de la Côte d'Azur
UACA
Approuvé A.T.O. EASA – N°FR.ATO.0108

UNION des aéroclubs
Cannes “Ailes d’Azur”, Nice “Côte d’Azur”, Grasse “St Exupery”, ACCA “Francis Séverac”

Un cache-pitot se trouve à bord de chaque avion. Pensez à le mettre en place à la fin de chaque vol !

Avant de quitter l'avion, vérifiez que vous n'emportez pas la checklist

Un vol ne s'entreprend qu'avec un pare-brise parfaitement propre, il en va de votre sécurité, et de celle des autres

Après chaque vol, merci de mettre en place les pares-soleil!


Météo à Cannes:
METAR
LFMD 231400Z AUTO 11006KT 030V170 9999 OVC032 13/06 Q1029 NOSIG =
LFMD 230800Z 2309/2409 VRB04KT CAVOK PROB40 TEMPO 2310/2312 09015G30KT BKN020 BECMG 2316/2318 VRB02KT

TAF
LFMD 230800Z 2309/2409 VRB04KT CAVOK PROB40 TEMPO 2310/2312 09015G30KT BKN020 BECMG 2316/2318 VRB02KT =

SR / SS: 06:19 / 17:11 UTC (LFMD 2019-02-23)